Regional Weather Roundup
Issued by NWS Albany, NY

Home | Current Version | Previous Version | Graphics & Text | Print | Product List | Glossary Off
Versions: 1 2 3 4 5 6 7 8 9 10 11 12 13 14 15 16 17 18 19 20 21 22 23 24 25 26 27 28 29 30 31 32 33 34 35 36 37 38 39 40 41 42 43 44 45 46 47 48 49 50

357
ASUS41 KALY 121910
RWRALY

NEW YORK STATE HOURLY WEATHER ROUNDUP
NATIONAL WEATHER SERVICE ALBANY NY
200 PM EST FRI FEB 12 2016

NOTE: "FAIR" INDICATES FEW OR NO CLOUDS BELOW 12,000 FEET WITH NO
SIGNIFICANT WEATHER AND/OR NO OBSTRUCTIONS TO VISIBILITY.

NYZ032-033-038>043-046>054-057>066-NYZ062>081-122000-
EAST


CITY           SKY/WX    TMP DP  RH WIND       PRES   REMARKS
ALBANY         CLOUDY    23   2  40 S10       30.01F WCI  12
GLENS FALLS    CLOUDY    21   4  47 S16G22    29.98F WCI   7
POUGHKEEPSIE   MOSUNNY   27  -1  30 SW8       30.05F WCI  19
NEWBURGH       PTSUNNY   25   3  39 SW12      30.05F WCI  14
MONTGOMERY     CLOUDY    26   3  37 S13       30.02F WCI  15
WHITE PLAINS   MOSUNNY   24   0  35 S5        30.05F WCI  18
ISLIP          CLOUDY    22   4  46 SW13      30.11F WCI  10
NEW YORK CITY  CLOUDY    26   1  34 SW6G17    30.10F WCI  19
CENTRAL PARK   MOSUNNY   25  -1  32 VRB6      30.11F WCI  18
$$

NYZ005>009-017-018-044>046-055-056-122000-
CENTRAL


CITY           SKY/WX    TMP DP  RH WIND       PRES   REMARKS
FULTON         PTSUNNY   26   8  46 SW15G24   29.91F WCI  14
SYRACUSE       CLOUDY    22   8  55 SW17G23   29.92F WCI   8
ROME           CLOUDY    21   6  52 SW7       29.95F WCI  12
ELMIRA         CLOUDY    21   6  52 SW14      29.93F WCI   8
BINGHAMTON     CLOUDY    16   3  56 SW13G21   29.89F WCI   2
MONTICELLO     CLOUDY    19   1  45 SW7G16    29.96F WCI  10
$$

NYZ026>034-041>043-122000-
NORTH


CITY           SKY/WX    TMP DP  RH WIND       PRES   REMARKS
WATERTOWN      CLOUDY    23  12  62 SW14G31   29.87F HAZE    WCI  11
FORT DRUM      NOT AVBL
MASSENA        LGT SNOW  21  13  71 S15G23    29.86F WCI   8
SARANAC LAKE   PTSUNNY   16   4  59 SW16G24   29.77F WCI   1
PLATTSBURGH    CLOUDY    20   6  55 S14       29.91F WCI   7
$$

NYZ001>004-010>016-019>021-122000-
WEST


CITY           SKY/WX    TMP DP  RH WIND       PRES   REMARKS
NIAGARA FALLS  LGT SNOW  22  22 100 SW15      29.88F VSB 1   WCI   9
BUFFALO        FLURRIES  22  11  62 SW20G37   29.87F WCI   7
DUNKIRK        PTSUNNY   22   7  52 SW23      29.92F WCI   6
JAMESTOWN      MOSUNNY   18   1  49 SW13G20   29.85F WCI   4
WELLSVILLE     CLOUDY    16   3  56 SW14G22   29.85F WCI   2
ROCHESTER      PTSUNNY   26   9  48 W21G29    29.89F WCI  12
PENN YAN       CLOUDY    24   5  44 SW16      29.89F WCI  11
$$

             KEY
       WCI = WIND CHILL INDEX
       VSB = VISIBILITY
       HX  = HEAT INDEX
$$




USA.gov is the U.S. government's official web portal to all federal, state and local government web resources and services.